Temp
20 18 16 16 15 15 15 15 15 15 15 15 15 15 15 15 14 14 14 14 15 16 13 13 14 14 14 14 14 13 13 13 13 12 12 13 13 13 13 13 13 13 13
20 19 17 16 15 15 15 15 15 15 15 15 14 14 14 13 13 13 13 13 15 14 12 12 13 14 14 14 13 13 12 13 13 12 13 13 13 13 13 13 13 13 12
20 19 17 16 15 15 15 15 15 15 15 14 14 14 13 13 12 13 12 11 12 13 13 11 13 13 13 12 13 13 13 13 13 13 12 13 12 12 12 12 12 12 12
20 20 18 16 16 15 15 15 15 14 14 14 13 13 11 11 12 12 12 12 12 13 13 13 12 13 13 12 13 13 13 13 13 13 12 13 13 12 12 12 12 12 12
20 20 19 17 16 15 14 15 14 14 14 14 13 11 11 11 11 12 12 13 13 13 14 14 13 13 13 13 13 13 13 13 14 13 13 13 13 13 12 12 11 12 11
20 20 19 18 16 16 14 15 15 14 14 14 14 12 11 12 12 12 12 12 13 14 14 14 14 14 14 14 14 14 14 14 14 13 13 13 13 13 13 13 12 11 11
20 19 19 18 16 15 15 15 15 15 14 14 14 13 12 12 13 12 12 12 13 14 14 14 14 14 14 14 14 14 13 13 13 13 13 13 13 13 13 13 13 11 11
19 19 18 18 17 16 15 15 15 15 15 15 15 13 12 12 13 12 12 12 13 13 13 13 14 13 13 13 13 13 13 13 12 12 12 12 12 12 12 12 12 12 11
18 18 18 18 17 16 15 15 15 15 15 15 15 14 13 13 13 13 12 13 13 13 13 13 13 13 13 13 13 12 12 12 12 12 12 12 12 12 12 12 12 12 12
18 18 18 18 18 17 16 15 15 15 15 15 15 14 13 13 13 13 13 13 13 13 13 13 13 13 12 12 12 12 12 12 12 12 12 12 12 12 12 12 13 13 13
18 18 18 18 18 17 17 16 15 15 14 14 14 14 14 14 14 13 13 12 12 12 12 12 12 12 12 12 12 12 12 12 12 12 12 12 12 12 12 12 12 12 12
20 19 18 18 18 17 17 16 15 15 14 14 14 14 14 14 13 13 13 13 13 12 12 12 12 12 12 12 12 12 12 12 12 12 12 12 12 12 12 12 12 12 11
20 19 19 19 18 17 17 17 16 15 14 14 14 14 13 13 13 13 13 12 12 12 12 12 12 11 11 11 11 11 11 12 12 11 11 11 11 12 12 12 12 12 12
20 19 19 19 18 18 17 17 16 15 15 14 14 13 13 13 13 12 12 12 12 12 12 12 11 11 11 11 11 12 12 12 11 11 11 11 12 12 11 11 11 11 11
20 20 20 19 19 18 17 16 16 15 15 14 14 13 13 13 12 12 12 12 12 12 11 11 11 11 11 12 12 11 11 11 11 12 11 11 11 11 11 11 11 10 10
20 20 20 20 19 18 17 17 16 15 15 14 14 13 13 12 12 12 12 12 11 11 11 11 11 12 11 11 11 11 12 12 12 11 11 11 11 10 10 10 10 10 10
20 20 20 21 20 18 18 17 16 15 15 14 14 13 13 13 13 12 12 11 11 11 11 11 11 11 11 11 11 11 11 11 11 11 11 10 10 9 9 9 9 9 9
20 20 20 21 20 19 17 17 16 15 15 14 14 14 14 13 13 12 12 11 11 11 11 11 11 12 12 12 11 11 11 11 10 10 10 9 8 8 8 8 9 9 9
20 20 21 20 20 19 17 16 15 15 15 14 14 14 13 13 12 12 12 11 11 11 11 11 11 11 11 11 11 11 10 10 10 9 8 8 8 8 8 8 8 8 8
19 20 20 19 19 18 17 16 15 15 15 14 14 13 13 12 12 12 12 11 11 11 11 11 11 10 10 9 9 9 10 10 9 8 8 8 7 8 8 7 7 7 7
18 19 19 19 18 18 16 16 15 15 13 14 13 12 12 12 12 11 12 11 11 11 11 11 10 9 9 8 9 9 9 9 8 7 8 7 8 8 7 6 7 6 6
17 18 18 18 17 17 16 16 15 14 13 13 13 12 12 12 11 12 11 11 11 10 10 10 9 8 7 7 6 6 6 7 7 7 7 7 6 6 6 5 5 5 5
17 18 18 17 16 16 15 15 14 13 13 12 12 12 12 11 12 11 11 11 10 10 9 9 7 7 6 5 5 4 4 3 2 4 5 5 5 4 4 4 4 4 4
17 17 16 16 15 15 15 15 15 15 14 13 12 12 12 11 11 11 10 10 10 9 8 7 6 6 5 5 4 3 2 1 0 0 2 3 3 2 3 3 3 3 3
16 16 16 15 14 14 14 14 14 14 13 14 13 12 11 11 10 10 10 9 9 8 7 6 5 5 4 4 3 2 2 1 0 -2 -2 1 2 2 2 2 1 1 1
15 15 15 15 14 13 13 13 14 13 13 13 11 11 11 10 10 9 9 8 8 7 6 5 5 4 4 3 2 1 0 -1 -1 -3 -3 -3 -3 -2 -1 0 1 1 0
Height
1495 1496 1499 1501 1503 1504 1505 1506 1507 1508 1509 1509 1510 1511 1511 1512 1512 1512 1513 1513 1513 1513 1514 1514 1516 1519 1521 1521 1522 1521 1521 1522 1522 1520 1520 1521 1521 1521 1522 1522 1523 1522 1523
1494 1495 1498 1501 1502 1504 1505 1506 1507 1508 1508 1509 1509 1509 1510 1512 1511 1511 1513 1512 1512 1512 1512 1515 1516 1519 1520 1521 1521 1521 1521 1520 1520 1521 1520 1520 1520 1520 1521 1521 1522 1522 1522
1494 1495 1497 1500 1503 1504 1505 1506 1507 1508 1508 1508 1508 1508 1509 1510 1510 1512 1512 1512 1512 1513 1513 1513 1516 1517 1519 1520 1520 1520 1519 1519 1519 1519 1520 1519 1519 1520 1520 1520 1521 1521 1522
1493 1495 1497 1499 1501 1504 1505 1506 1507 1508 1508 1508 1508 1508 1508 1510 1511 1512 1512 1512 1513 1513 1513 1513 1515 1516 1518 1519 1520 1519 1519 1518 1518 1518 1518 1518 1518 1519 1519 1519 1520 1520 1520
1492 1495 1497 1499 1501 1503 1505 1507 1507 1508 1508 1508 1508 1509 1511 1512 1514 1513 1514 1513 1513 1513 1513 1513 1515 1516 1517 1518 1518 1518 1518 1517 1517 1517 1517 1517 1517 1517 1517 1518 1520 1520 1519
1492 1494 1496 1499 1501 1503 1505 1506 1508 1508 1509 1509 1509 1509 1511 1513 1514 1515 1515 1514 1514 1514 1514 1514 1514 1515 1516 1517 1518 1517 1517 1517 1517 1517 1516 1516 1515 1515 1515 1515 1516 1516 1517
1493 1495 1496 1498 1501 1503 1505 1506 1507 1509 1509 1509 1510 1510 1511 1513 1514 1515 1516 1515 1515 1515 1515 1515 1515 1515 1516 1516 1517 1516 1516 1516 1516 1516 1516 1515 1515 1514 1513 1513 1513 1514 1515
1495 1495 1497 1498 1500 1503 1505 1506 1507 1508 1509 1509 1509 1511 1512 1514 1515 1516 1516 1516 1516 1515 1515 1515 1515 1516 1516 1516 1517 1516 1515 1515 1516 1515 1515 1514 1514 1514 1513 1512 1511 1511 1512
1495 1496 1497 1498 1500 1501 1504 1506 1507 1508 1508 1509 1510 1511 1512 1514 1515 1516 1516 1516 1516 1516 1516 1515 1515 1515 1516 1515 1516 1516 1515 1515 1515 1514 1514 1513 1513 1512 1512 1511 1511 1510 1509
1494 1495 1497 1498 1499 1500 1502 1505 1507 1508 1509 1509 1509 1511 1512 1513 1514 1515 1516 1516 1517 1516 1516 1515 1515 1515 1516 1515 1515 1515 1515 1514 1514 1513 1513 1512 1511 1511 1510 1510 1509 1508 1507
1492 1493 1495 1496 1497 1498 1500 1503 1505 1507 1508 1508 1509 1510 1511 1512 1514 1514 1515 1516 1516 1516 1516 1515 1515 1516 1516 1515 1515 1513 1514 1513 1512 1512 1511 1510 1509 1509 1508 1507 1505 1504 1504
1490 1491 1493 1495 1496 1497 1498 1501 1504 1505 1507 1508 1509 1510 1511 1512 1513 1514 1514 1515 1515 1515 1516 1515 1515 1515 1515 1514 1514 1512 1511 1511 1510 1509 1508 1508 1507 1506 1505 1505 1503 1501 1500
1489 1489 1491 1493 1494 1496 1497 1499 1501 1503 1505 1506 1508 1510 1511 1512 1513 1514 1514 1515 1515 1514 1515 1515 1514 1514 1514 1513 1512 1510 1509 1508 1507 1506 1505 1504 1503 1502 1501 1500 1499 1498 1497
1487 1487 1489 1491 1492 1494 1496 1498 1500 1502 1503 1505 1506 1508 1511 1511 1513 1513 1513 1513 1514 1514 1515 1515 1513 1512 1513 1512 1510 1508 1506 1504 1503 1502 1501 1500 1499 1498 1497 1496 1495 1494 1493
1483 1484 1486 1488 1489 1491 1493 1496 1499 1500 1502 1504 1505 1507 1510 1511 1512 1512 1512 1512 1512 1514 1513 1513 1511 1511 1511 1509 1507 1505 1503 1501 1500 1499 1497 1496 1494 1494 1493 1492 1491 1489 1488
1481 1481 1482 1483 1485 1488 1490 1493 1497 1499 1501 1503 1505 1506 1508 1509 1510 1510 1511 1511 1511 1512 1512 1511 1509 1509 1508 1506 1503 1501 1499 1498 1496 1495 1493 1492 1490 1489 1488 1487 1486 1485 1484
1476 1477 1477 1478 1480 1483 1486 1491 1494 1497 1498 1501 1503 1504 1506 1507 1508 1508 1509 1510 1511 1510 1510 1508 1506 1506 1504 1502 1500 1498 1496 1494 1492 1491 1489 1487 1486 1485 1484 1483 1482 1481 1480
1470 1470 1472 1473 1475 1478 1482 1487 1490 1493 1496 1499 1500 1502 1504 1505 1506 1506 1507 1508 1508 1508 1507 1504 1504 1503 1500 1498 1495 1494 1491 1490 1488 1486 1485 1484 1483 1482 1481 1480 1479 1478 1476
1463 1464 1466 1467 1470 1473 1478 1483 1486 1489 1493 1496 1497 1499 1501 1502 1503 1505 1505 1506 1506 1506 1504 1501 1501 1499 1496 1494 1491 1489 1487 1486 1484 1483 1482 1481 1480 1479 1478 1477 1475 1473 1471
1457 1458 1460 1462 1466 1469 1474 1477 1481 1485 1489 1493 1495 1496 1499 1500 1502 1503 1503 1503 1504 1503 1501 1499 1498 1495 1492 1489 1487 1485 1482 1481 1480 1480 1480 1479 1478 1476 1474 1473 1471 1468 1466
1451 1453 1455 1458 1461 1464 1467 1471 1476 1480 1486 1488 1491 1494 1496 1498 1499 1500 1501 1502 1502 1501 1498 1496 1494 1491 1489 1486 1483 1482 1480 1478 1478 1477 1476 1476 1474 1473 1471 1469 1466 1463 1460
1447 1449 1451 1454 1457 1460 1464 1468 1473 1476 1481 1485 1488 1491 1494 1496 1497 1498 1499 1499 1499 1497 1495 1492 1490 1489 1487 1485 1482 1478 1476 1476 1474 1474 1474 1473 1470 1469 1466 1463 1460 1457 1454
1442 1444 1447 1450 1454 1456 1460 1464 1469 1474 1479 1481 1485 1488 1491 1493 1495 1496 1497 1496 1496 1494 1492 1490 1488 1487 1486 1485 1483 1483 1479 1476 1470 1466 1467 1465 1464 1461 1459 1455 1452 1449 1447
1437 1440 1443 1446 1450 1454 1457 1461 1465 1469 1474 1479 1481 1485 1488 1491 1493 1494 1494 1494 1493 1491 1490 1488 1486 1485 1484 1483 1483 1482 1480 1477 1472 1460 1458 1457 1454 1452 1449 1446 1444 1441 1439
1432 1436 1440 1443 1447 1451 1455 1459 1463 1468 1472 1475 1479 1482 1485 1489 1491 1492 1492 1491 1490 1489 1488 1486 1485 1484 1482 1482 1480 1477 1476 1473 1471 1465 1452 1447 1445 1444 1441 1438 1436 1434 1431
1427 1432 1436 1439 1444 1448 1453 1458 1463 1467 1470 1473 1477 1481 1484 1487 1489 1490 1489 1488 1488 1486 1486 1484 1483 1482 1481 1479 1477 1474 1472 1469 1465 1463 1454 1445 1438 1432 1432 1431 1430 1427 1424
Wind_Speed
9 13 17 14 12 6 5 6 8 9 9 10 11 11 12 11 11 11 10 10 12 9 1 1 7 5 7 5 5 7 8 9 11 8 6 9 10 9 9 8 7 5 4
8 12 17 15 11 11 9 5 6 7 8 9 11 11 11 9 11 12 9 7 2 4 5 7 11 10 9 9 7 8 9 11 10 9 9 7 5 5 5 6 6 6 4
8 12 14 14 12 10 8 4 4 1 3 4 6 8 9 12 11 8 4 3 2 2 4 9 14 14 13 8 10 8 8 10 10 9 9 6 4 5 5 7 6 5 7
9 12 13 16 12 9 8 5 3 1 2 2 3 6 7 5 7 6 5 5 3 3 2 7 12 13 12 11 10 8 9 11 10 9 7 8 7 7 8 5 5 7 8
12 12 11 15 13 9 9 5 3 2 3 2 2 8 9 6 1 8 5 5 5 5 3 3 5 8 10 10 10 8 8 8 7 5 6 7 8 9 8 6 5 9 12
11 12 11 13 13 11 10 6 3 1 3 2 3 9 9 5 4 2 2 5 6 6 6 5 4 3 2 2 2 2 2 3 5 6 6 6 7 7 7 7 7 8 9
10 12 11 13 13 12 11 7 4 2 2 2 3 8 9 6 5 3 2 4 5 6 6 7 7 5 4 2 2 2 2 3 4 5 6 6 6 6 5 5 7 7 10
6 10 11 12 13 10 11 7 6 4 2 2 2 6 8 8 4 7 4 3 3 4 5 5 5 5 4 5 4 4 3 4 5 5 6 6 7 6 6 7 8 6 10
7 8 9 10 12 13 13 10 7 5 3 2 1 5 5 7 5 4 4 2 2 3 3 4 4 3 3 3 4 4 4 5 5 5 6 6 6 7 8 9 10 10 8
8 8 9 9 12 13 13 11 8 6 5 3 2 4 5 6 8 7 4 2 1 2 2 3 3 3 3 4 3 4 5 5 7 8 8 8 9 9 11 12 12 12 12
12 11 11 10 12 13 13 11 10 8 6 4 4 4 6 6 5 4 3 1 1 2 2 3 3 3 4 3 4 5 7 9 11 11 11 11 11 12 12 16 16 17 17
9 11 12 12 12 13 14 13 12 9 7 5 6 5 4 5 6 5 3 2 2 1 1 2 3 3 5 5 6 8 10 13 13 14 14 14 15 16 16 17 19 19 17
7 10 11 12 13 14 15 14 13 12 8 6 7 8 6 5 4 3 3 3 3 1 3 4 4 6 7 8 9 12 15 16 17 17 18 19 19 19 19 19 20 20 21
14 15 15 15 15 14 14 14 13 12 8 8 8 8 6 4 3 3 3 3 4 4 5 6 5 6 7 11 14 16 17 18 19 20 19 19 19 19 19 19 19 19 19
15 18 21 20 21 18 16 14 14 13 10 9 8 7 5 4 5 5 5 5 5 5 5 6 8 9 13 15 17 17 19 20 20 20 21 22 22 22 20 21 21 21 21
19 18 20 22 24 23 19 16 14 13 11 10 8 7 7 5 5 6 5 7 7 7 6 9 10 14 15 17 19 19 19 21 22 23 24 23 23 21 20 20 20 20 21
25 24 22 22 23 27 23 18 16 14 13 13 11 10 8 6 6 6 7 6 6 7 9 12 14 17 17 16 18 19 21 22 23 23 23 21 19 17 17 16 16 17 17
26 29 25 24 23 26 26 21 19 18 16 17 14 13 12 9 6 6 9 9 9 11 12 12 14 17 20 21 22 21 22 22 22 20 18 16 14 13 14 16 19 21 22
23 23 24 22 23 26 28 24 24 22 19 17 16 16 12 9 7 7 13 10 10 9 10 13 17 21 23 23 21 19 18 18 17 16 13 12 14 16 16 20 23 23 24
24 20 19 20 22 25 30 29 27 25 20 20 20 17 13 12 9 11 10 7 7 9 12 15 18 20 21 21 19 16 16 13 12 11 13 16 14 16 21 23 23 26 27
22 20 20 19 21 28 34 33 30 28 25 24 22 19 14 9 10 10 7 6 7 10 14 17 18 17 18 20 21 19 10 4 14 14 10 14 19 26 24 22 28 28 29
22 21 21 21 21 27 33 33 32 31 28 26 22 17 11 9 9 9 7 6 8 13 16 17 16 16 17 20 21 19 11 11 3 3 24 20 21 24 29 26 30 30 29
24 23 21 21 23 24 30 33 33 32 30 28 23 17 11 12 11 9 6 6 10 14 16 17 16 16 15 17 18 13 8 6 31 9 29 16 25 30 32 35 35 32 33
25 22 20 20 24 26 29 32 33 34 30 26 23 17 14 14 11 8 5 8 11 14 15 15 15 16 17 17 16 15 14 16 12 18 18 37 31 41 41 40 37 38 32
27 24 21 20 23 25 29 31 34 35 29 24 21 18 17 14 10 6 6 9 12 13 14 14 15 16 17 18 19 20 20 19 18 18 34 39 46 45 44 43 40 34 35
28 24 22 21 22 24 27 32 29 31 26 22 20 19 16 12 7 5 7 10 12 13 14 14 15 16 18 19 20 20 20 19 20 22 34 42 43 43 48 39 38 36 35
Wind_Direction
175 166 163 181 188 173 185 184 203 214 224 232 238 241 243 245 248 249 262 262 271 273 147 197 155 167 182 202 227 259 286 316 345 353 299 289 275 266 266 263 269 256 236
178 164 169 178 185 179 191 194 197 211 221 225 230 236 234 215 231 244 262 267 266 92 148 138 146 155 180 200 217 263 290 307 337 339 336 306 278 264 273 270 264 243 186
163 168 168 174 181 194 193 175 176 218 227 239 221 217 209 204 220 244 243 158 100 79 139 162 169 171 181 199 227 256 277 294 318 322 333 339 291 274 279 275 265 268 239
162 171 170 177 181 192 194 187 167 70 339 267 217 176 147 142 144 117 125 118 82 40 125 170 190 193 204 219 239 262 277 295 307 309 307 313 296 282 283 292 301 301 294
161 169 174 177 178 182 193 205 187 30 1 349 176 137 142 153 114 79 78 76 52 50 55 137 179 204 226 244 260 275 286 304 324 338 326 317 307 291 281 259 254 269 268
164 168 175 179 181 183 201 212 212 313 358 354 199 160 166 159 184 349 59 51 46 55 61 88 111 134 199 241 269 305 336 10 16 8 357 344 335 319 291 273 268 268 270
167 173 179 183 185 194 203 207 213 270 335 345 199 174 161 155 166 259 354 26 39 54 62 68 76 78 73 86 95 41 24 26 19 11 10 8 7 5 345 307 302 259 273
176 183 187 191 192 193 218 224 223 245 302 333 190 181 172 155 182 240 283 344 20 55 64 62 57 47 42 38 19 1 17 7 356 359 0 1 359 354 345 334 320 289 253
184 196 203 204 203 199 217 232 233 248 277 293 194 187 177 179 178 226 264 308 37 49 47 54 56 47 24 21 0 353 4 346 342 348 349 350 332 326 323 324 322 309 282
205 205 214 218 218 216 218 228 233 245 259 248 194 186 185 185 186 207 231 146 66 33 37 44 29 30 10 12 8 345 340 338 329 323 319 310 302 305 308 305 304 302 288
216 217 222 228 229 225 224 226 228 233 244 234 210 194 203 200 192 179 159 157 130 71 47 52 43 7 349 342 327 324 319 311 309 307 302 294 302 302 297 294 293 290 284
223 228 230 232 234 230 226 225 224 223 234 230 208 194 178 167 170 179 198 195 163 81 34 5 353 337 324 323 319 318 323 315 309 302 298 295 291 291 291 291 292 295 295
261 243 246 242 238 232 229 226 222 218 222 209 199 185 170 164 171 188 201 217 221 268 295 308 317 324 317 317 322 321 315 310 308 304 300 298 296 294 292 289 284 286 289
270 268 257 252 244 238 232 226 221 213 213 199 186 186 186 183 204 215 222 243 266 302 309 314 319 315 305 306 308 307 302 303 304 302 300 299 298 298 297 294 292 292 291
271 272 263 256 248 239 230 222 214 207 204 188 188 189 206 218 246 253 276 290 286 302 305 293 304 302 298 301 298 300 301 299 298 297 296 295 294 293 293 289 291 287 286
266 267 270 259 248 237 230 220 213 203 195 193 200 201 223 230 252 264 284 286 281 275 287 296 299 296 292 293 296 299 299 298 297 295 295 294 294 294 294 292 290 289 289
262 262 267 256 247 234 227 218 208 199 201 201 207 211 222 238 266 279 307 291 286 282 286 290 292 296 299 299 298 298 297 296 296 295 293 291 292 295 296 298 298 296 293
266 259 261 255 248 234 221 212 205 204 213 215 219 219 221 225 246 271 295 283 279 277 287 296 300 300 301 301 301 302 300 297 296 293 289 287 291 295 299 301 302 300 296
273 258 258 249 243 230 215 210 208 208 221 217 214 212 209 229 230 272 284 263 275 284 301 308 306 305 303 301 302 305 302 299 292 284 278 285 294 291 297 303 305 301 298
268 247 248 247 242 221 211 209 209 209 217 206 207 207 209 215 243 269 267 256 269 297 309 312 310 311 314 319 321 322 315 302 288 274 275 285 290 294 307 310 304 303 302
244 235 242 246 241 218 210 208 206 206 201 194 197 202 209 223 258 260 232 250 285 306 316 322 326 326 323 327 332 333 334 328 295 284 296 278 295 300 300 301 306 306 305
232 229 238 243 233 220 214 210 207 203 195 191 194 195 213 235 237 216 225 263 302 321 329 331 334 337 340 340 346 347 341 341 275 232 301 296 291 289 300 309 313 313 312
228 228 231 231 224 217 212 208 203 197 192 187 186 185 213 207 205 212 238 289 318 331 334 336 339 340 342 344 347 358 341 314 316 317 312 309 308 309 313 318 319 321 318
230 224 223 221 220 217 209 207 209 204 198 192 186 188 218 195 203 220 263 308 325 334 337 336 337 338 339 339 340 338 332 318 316 314 311 312 315 316 320 321 322 321 321
225 220 218 214 211 211 207 204 203 199 196 205 200 193 190 193 205 237 292 319 331 334 334 335 334 333 335 334 333 332 328 323 319 297 306 312 315 318 318 321 320 323 324
216 211 210 202 198 197 197 198 204 202 198 194 185 186 186 194 216 265 309 325 329 332 331 328 328 330 329 328 327 327 326 324 319 314 309 311 313 317 316 318 320 321 321